KLM82D LEBL-EHAM

Flight info

Callsign KLM82D
Flight time 1h 40m
Altitude 36000
Route OLOXO DCT OKABI DCT TOU DCT ADABI DCT BOKNO UN858 VANAD UN874 BAMES UT191 PODEM UN873 BAZOS DCT LUMIL DCT BELOB UY873 DENUT
Aircraft A21N/M-SDE2E3FGHIRWXY/LB1

Departure

Time 2026-05-07 21:14
Airport Josep Tarradellas Barcelona-El Prat Airport (LEBL)

Arrival

Time 2026-05-07 22:54
Airport Amsterdam Airport Schiphol (EHAM)
Time Latitude Longitude Altitude Speed Heading
2026-05-07 20:36 41.29027 2.08051 26 ft 0 kts 334°
2026-05-07 21:04 41.29023 2.08054 24 ft 3 kts 335°
2026-05-07 21:04 41.28998 2.08068 24 ft 4 kts 342°
2026-05-07 21:05 41.28972 2.08075 27 ft 4 kts
2026-05-07 21:05 41.28950 2.08067 27 ft 4 kts 52°
2026-05-07 21:05 41.28947 2.08061 27 ft 0 kts 65°
2026-05-07 21:09 41.28947 2.08062 24 ft 1 kts 66°
2026-05-07 21:09 41.28949 2.08094 24 ft 7 kts 101°
2026-05-07 21:10 41.28902 2.08147 24 ft 12 kts 153°
2026-05-07 21:10 41.28801 2.08205 21 ft 17 kts 159°
2026-05-07 21:10 41.28689 2.08214 23 ft 18 kts 226°
2026-05-07 21:10 41.28633 2.08062 22 ft 19 kts 244°
2026-05-07 21:11 41.28577 2.07898 23 ft 20 kts 245°
2026-05-07 21:11 41.28518 2.07725 22 ft 21 kts 246°
2026-05-07 21:11 41.28400 2.07382 22 ft 18 kts 243°
2026-05-07 21:12 41.28328 2.07340 21 ft 10 kts 178°
2026-05-07 21:12 41.28253 2.07365 24 ft 12 kts 155°
2026-05-07 21:12 41.28235 2.07466 24 ft 11 kts 88°
2026-05-07 21:12 41.28255 2.07507 25 ft 6 kts 51°
2026-05-07 21:13 41.28263 2.07528 25 ft 1 kts 65°
2026-05-07 21:13 41.28339 2.07754 25 ft 62 kts 65°
2026-05-07 21:13 41.28614 2.08555 27 ft 125 kts 66°
2026-05-07 21:13 41.29037 2.09784 163 ft 154 kts 66°
2026-05-07 21:14 41.29479 2.11064 764 ft 154 kts 71°
2026-05-07 21:14 41.29552 2.12486 1254 ft 159 kts 99°
2026-05-07 21:14 41.29352 2.13960 1714 ft 170 kts 99°
2026-05-07 21:14 41.29174 2.15574 2193 ft 183 kts 97°
2026-05-07 21:15 41.28990 2.17313 2716 ft 197 kts 98°
2026-05-07 21:15 41.28795 2.19170 3320 ft 207 kts 98°
2026-05-07 21:15 41.28595 2.21086 4014 ft 212 kts 98°
2026-05-07 21:15 41.28737 2.23116 4381 ft 235 kts 69°
2026-05-07 21:16 41.29779 2.24890 4739 ft 258 kts 35°
2026-05-07 21:16 41.31508 2.25668 5265 ft 271 kts
2026-05-07 21:16 41.33341 2.25104 5952 ft 276 kts 331°
2026-05-07 21:16 41.34852 2.23517 6695 ft 278 kts 319°
2026-05-07 21:17 41.36294 2.21782 7426 ft 280 kts 319°
2026-05-07 21:17 41.37780 2.20086 8161 ft 283 kts 321°
2026-05-07 21:17 41.39305 2.18419 8911 ft 285 kts 322°
2026-05-07 21:17 41.40867 2.16757 9670 ft 288 kts 322°
2026-05-07 21:18 41.42454 2.15099 10288 ft 296 kts 322°
2026-05-07 21:18 41.44134 2.13354 10602 ft 315 kts 322°
2026-05-07 21:18 41.45912 2.11511 10866 ft 333 kts 322°
2026-05-07 21:18 41.47793 2.09568 11112 ft 351 kts 322°
2026-05-07 21:19 41.49770 2.07535 11375 ft 366 kts 322°
2026-05-07 21:19 41.51805 2.05438 11866 ft 372 kts 322°
2026-05-07 21:19 41.53860 2.03317 12445 ft 375 kts 322°
2026-05-07 21:19 41.55934 2.01173 13052 ft 378 kts 322°
2026-05-07 21:20 41.58017 1.99019 13649 ft 380 kts 322°
2026-05-07 21:20 41.60119 1.96856 14172 ft 383 kts 322°
2026-05-07 21:20 41.62233 1.94675 14664 ft 385 kts 322°
2026-05-07 21:20 41.64368 1.92480 15168 ft 388 kts 322°
2026-05-07 21:21 41.66509 1.90280 15624 ft 390 kts 322°
2026-05-07 21:21 41.68663 1.88056 16074 ft 393 kts 322°
2026-05-07 21:21 41.70832 1.85807 16514 ft 395 kts 322°
2026-05-07 21:21 41.73005 1.83540 16942 ft 397 kts 321°
2026-05-07 21:22 41.75250 1.81365 17355 ft 400 kts 327°
2026-05-07 21:22 41.77746 1.79696 17761 ft 403 kts 338°
2026-05-07 21:22 41.80417 1.78486 18154 ft 407 kts 342°
2026-05-07 21:22 41.83123 1.77350 18505 ft 409 kts 342°
2026-05-07 21:23 41.85850 1.76202 18834 ft 412 kts 341°
2026-05-07 21:23 41.88590 1.75043 19171 ft 414 kts 341°
2026-05-07 21:23 41.91347 1.73872 19493 ft 417 kts 341°
2026-05-07 21:23 41.94119 1.72687 19820 ft 419 kts 341°
2026-05-07 21:24 41.96907 1.71487 20141 ft 422 kts 340°
2026-05-07 21:24 41.99708 1.70283 20470 ft 424 kts 341°
2026-05-07 21:24 42.02522 1.69075 20788 ft 426 kts 340°
2026-05-07 21:24 42.05354 1.67857 21117 ft 428 kts 340°
2026-05-07 21:25 42.08155 1.66647 21420 ft 430 kts 340°
2026-05-07 21:25 42.11009 1.65414 21720 ft 432 kts 340°
2026-05-07 21:25 42.13880 1.64173 22014 ft 434 kts 340°
2026-05-07 21:25 42.16761 1.62925 22308 ft 436 kts 340°
2026-05-07 21:26 42.19661 1.61666 22639 ft 439 kts 340°
2026-05-07 21:26 42.22571 1.60402 22930 ft 441 kts 340°
2026-05-07 21:26 42.25499 1.59129 23214 ft 443 kts 340°
2026-05-07 21:26 42.28445 1.57844 23513 ft 446 kts 340°
2026-05-07 21:27 42.31403 1.56552 23768 ft 448 kts 340°
2026-05-07 21:27 42.34374 1.55265 23981 ft 450 kts 340°
2026-05-07 21:27 42.37367 1.53966 24190 ft 452 kts 340°
2026-05-07 21:27 42.40369 1.52657 24383 ft 455 kts 340°
2026-05-07 21:28 42.43409 1.51426 24533 ft 458 kts 345°
2026-05-07 21:28 42.46575 1.50751 24675 ft 462 kts 351°
2026-05-07 21:28 42.49769 1.50246 24839 ft 463 kts 352°
2026-05-07 21:28 42.52976 1.49752 24976 ft 464 kts 352°
2026-05-07 21:29 42.56188 1.49250 25094 ft 465 kts 351°
2026-05-07 21:29 42.59405 1.48740 25224 ft 467 kts 351°
2026-05-07 21:29 42.62636 1.48223 25358 ft 467 kts 351°
2026-05-07 21:29 42.65865 1.47702 25495 ft 468 kts 351°
2026-05-07 21:30 42.69095 1.47179 25620 ft 468 kts 351°
2026-05-07 21:30 42.72336 1.46658 25736 ft 470 kts 351°
2026-05-07 21:30 42.75588 1.46139 25858 ft 471 kts 351°
2026-05-07 21:30 42.78843 1.45618 26018 ft 470 kts 351°
2026-05-07 21:31 42.82095 1.45086 26153 ft 471 kts 351°
2026-05-07 21:31 42.85312 1.44562 26199 ft 473 kts 351°
2026-05-07 21:31 42.88591 1.44034 26306 ft 475 kts 351°
2026-05-07 21:31 42.91868 1.43509 26419 ft 475 kts 351°
2026-05-07 21:32 42.95155 1.42981 26508 ft 476 kts 351°
2026-05-07 21:32 42.98451 1.42439 26614 ft 477 kts 351°
2026-05-07 21:32 43.01743 1.41903 26704 ft 477 kts 351°
2026-05-07 21:32 43.05044 1.41363 26831 ft 477 kts 350°
2026-05-07 21:33 43.08341 1.40824 26926 ft 478 kts 350°
2026-05-07 21:33 43.11640 1.40272 27007 ft 478 kts 350°
2026-05-07 21:33 43.14938 1.39696 27097 ft 479 kts 350°
2026-05-07 21:33 43.18252 1.39136 27172 ft 479 kts 350°
2026-05-07 21:34 43.21565 1.38597 27238 ft 480 kts 350°
2026-05-07 21:34 43.24883 1.38055 27345 ft 480 kts 350°
2026-05-07 21:34 43.28195 1.37514 27452 ft 479 kts 350°
2026-05-07 21:34 43.31504 1.36971 27544 ft 479 kts 350°
2026-05-07 21:35 43.34817 1.36430 27625 ft 479 kts 350°
2026-05-07 21:35 43.38130 1.35908 27691 ft 479 kts 350°
2026-05-07 21:35 43.41442 1.35376 27771 ft 479 kts 350°
2026-05-07 21:35 43.44748 1.34833 27841 ft 479 kts 350°
2026-05-07 21:36 43.48058 1.34294 27910 ft 479 kts 350°
2026-05-07 21:36 43.51367 1.33745 27981 ft 479 kts 350°
2026-05-07 21:36 43.57988 1.32646 28148 ft 479 kts 350°
2026-05-07 21:37 43.64614 1.31563 28336 ft 479 kts 350°
2026-05-07 21:37 43.71145 1.30187 28478 ft 477 kts 346°
2026-05-07 21:38 43.77675 1.28490 28645 ft 477 kts 346°
2026-05-07 21:38 43.84204 1.26785 28818 ft 477 kts 346°
2026-05-07 21:39 43.87470 1.25946 28927 ft 477 kts 346°
2026-05-07 21:39 43.90726 1.25098 29033 ft 476 kts 346°
2026-05-07 21:39 43.97228 1.23412 29202 ft 475 kts 346°
2026-05-07 21:40 44.03734 1.21716 29361 ft 475 kts 346°
2026-05-07 21:40 44.06971 1.20874 29507 ft 473 kts 347°
2026-05-07 21:40 44.10205 1.20027 29623 ft 472 kts 346°
2026-05-07 21:41 44.16649 1.18332 29794 ft 471 kts 347°
2026-05-07 21:41 44.23080 1.16645 29950 ft 470 kts 347°
2026-05-07 21:42 44.26298 1.15806 30088 ft 469 kts 347°
2026-05-07 21:42 44.29502 1.14969 30206 ft 468 kts 347°
2026-05-07 21:42 44.32700 1.14133 30321 ft 467 kts 347°
2026-05-07 21:42 44.35889 1.13294 30435 ft 466 kts 347°
2026-05-07 21:43 44.39069 1.12451 30539 ft 465 kts 347°
2026-05-07 21:43 44.42245 1.11619 30622 ft 465 kts 347°
2026-05-07 21:43 44.45420 1.10786 30731 ft 464 kts 347°
2026-05-07 21:43 44.48586 1.09970 30833 ft 463 kts 347°
2026-05-07 21:44 44.54912 1.08308 30989 ft 462 kts 347°
2026-05-07 21:44 44.61223 1.06609 31120 ft 462 kts 347°
2026-05-07 21:45 44.67537 1.04915 31235 ft 462 kts 347°
2026-05-07 21:45 44.73813 1.03241 31348 ft 462 kts 347°
2026-05-07 21:46 44.80132 1.01538 31461 ft 463 kts 347°
2026-05-07 21:46 44.86458 0.99849 31595 ft 462 kts 347°
2026-05-07 21:47 44.92847 0.98923 31682 ft 467 kts
2026-05-07 21:47 44.99199 1.00972 31797 ft 469 kts 12°
2026-05-07 21:48 45.05554 1.03137 31905 ft 469 kts 12°
2026-05-07 21:48 45.11918 1.05220 32033 ft 470 kts 11°
2026-05-07 21:49 45.18283 1.07295 32159 ft 469 kts 11°
2026-05-07 21:49 45.24652 1.09372 32255 ft 470 kts 12°
2026-05-07 21:50 45.31029 1.11471 32359 ft 471 kts 12°
2026-05-07 21:50 45.37418 1.13563 32470 ft 471 kts 12°
2026-05-07 21:51 45.43801 1.15672 32570 ft 471 kts 12°
2026-05-07 21:51 45.50195 1.17781 32659 ft 472 kts 12°
2026-05-07 21:52 45.56589 1.19900 32756 ft 472 kts 12°
2026-05-07 21:52 45.62982 1.22018 32847 ft 472 kts 12°
2026-05-07 21:53 45.69379 1.24153 32934 ft 472 kts 12°
2026-05-07 21:53 45.75781 1.26290 33034 ft 472 kts 12°
2026-05-07 21:54 45.82137 1.28403 33157 ft 472 kts 12°
2026-05-07 21:54 45.88524 1.30551 33260 ft 471 kts 12°
2026-05-07 21:55 45.94911 1.32704 33349 ft 471 kts 12°
2026-05-07 21:55 46.01298 1.34851 33438 ft 471 kts 12°
2026-05-07 21:56 46.07681 1.36998 33533 ft 471 kts 12°
2026-05-07 21:56 46.14058 1.39152 33614 ft 470 kts 12°
2026-05-07 21:57 46.20423 1.41330 33683 ft 470 kts 12°
2026-05-07 21:57 46.26795 1.43505 33718 ft 470 kts 12°
2026-05-07 21:58 46.33163 1.45675 33773 ft 470 kts 12°
2026-05-07 21:58 46.39535 1.47860 33814 ft 471 kts 12°
2026-05-07 21:59 46.44830 1.49677 33845 ft 471 kts 12°
2026-05-07 21:59 46.51205 1.51864 33877 ft 471 kts 12°
2026-05-07 22:00 46.57580 1.54057 33912 ft 471 kts 12°
2026-05-07 22:00 46.63955 1.56273 33954 ft 471 kts 12°
2026-05-07 22:01 46.70343 1.58453 34013 ft 471 kts 12°
2026-05-07 22:01 46.76730 1.60637 34026 ft 472 kts 12°
2026-05-07 22:02 46.83121 1.62852 34022 ft 472 kts 12°
2026-05-07 22:02 46.89505 1.65075 34023 ft 471 kts 12°
2026-05-07 22:03 46.95883 1.67287 34032 ft 469 kts 12°
2026-05-07 22:03 47.02249 1.69512 34024 ft 471 kts 12°
2026-05-07 22:04 47.08610 1.71739 34022 ft 468 kts 12°
2026-05-07 22:04 47.14949 1.73969 34023 ft 469 kts 12°
2026-05-07 22:05 47.21314 1.76205 34026 ft 470 kts 12°
2026-05-07 22:05 47.27603 1.78428 34029 ft 468 kts 12°
2026-05-07 22:06 47.33942 1.80669 34023 ft 470 kts 12°
2026-05-07 22:06 47.40293 1.82930 34026 ft 467 kts 11°
2026-05-07 22:07 47.46623 1.85181 34025 ft 468 kts 12°
2026-05-07 22:07 47.52972 1.87441 34018 ft 470 kts 12°
2026-05-07 22:08 47.59305 1.89716 34026 ft 467 kts 11°
2026-05-07 22:08 47.65636 1.91988 34022 ft 469 kts 11°
2026-05-07 22:09 47.71996 1.94272 34022 ft 470 kts 11°
2026-05-07 22:09 47.78322 1.96570 34028 ft 468 kts 12°
2026-05-07 22:10 47.84650 1.98874 34044 ft 466 kts 11°
2026-05-07 22:10 47.90957 2.01178 34047 ft 468 kts 11°
2026-05-07 22:11 47.97298 2.03458 34054 ft 468 kts 11°
2026-05-07 22:11 48.03607 2.05752 34045 ft 467 kts 11°
2026-05-07 22:12 48.09938 2.08056 34041 ft 466 kts 11°
2026-05-07 22:12 48.16236 2.10343 34063 ft 467 kts 11°
2026-05-07 22:13 48.22557 2.12656 34059 ft 467 kts 11°
2026-05-07 22:13 48.28871 2.14942 34053 ft 468 kts 11°
2026-05-07 22:14 48.35186 2.17291 34058 ft 466 kts 11°
2026-05-07 22:14 48.41498 2.19624 34071 ft 468 kts 11°
2026-05-07 22:15 48.47743 2.21937 34064 ft 465 kts 11°
2026-05-07 22:15 48.54042 2.24265 34077 ft 467 kts 11°
2026-05-07 22:16 48.60337 2.26606 34080 ft 465 kts 11°
2026-05-07 22:16 48.66631 2.28953 34086 ft 466 kts 11°
2026-05-07 22:17 48.72893 2.31298 34082 ft 464 kts 11°
2026-05-07 22:17 48.79187 2.33659 34085 ft 466 kts 11°
2026-05-07 22:18 48.88598 2.37196 34084 ft 466 kts 11°
2026-05-07 22:19 48.94882 2.39578 34081 ft 463 kts 11°
2026-05-07 22:19 49.01150 2.41961 34083 ft 466 kts 11°
2026-05-07 22:20 49.07428 2.44351 34088 ft 462 kts 12°
2026-05-07 22:20 49.13670 2.46729 34085 ft 464 kts 11°
2026-05-07 22:21 49.19930 2.49106 34084 ft 461 kts 12°
2026-05-07 22:21 49.26177 2.51515 34087 ft 464 kts 12°
2026-05-07 22:22 49.32425 2.53894 34088 ft 461 kts 12°
2026-05-07 22:22 49.38676 2.56286 34087 ft 464 kts 12°
2026-05-07 22:23 49.44910 2.58694 34085 ft 462 kts 12°
2026-05-07 22:23 49.51159 2.61120 34099 ft 462 kts 12°
2026-05-07 22:24 49.57345 2.63514 34086 ft 462 kts 12°
2026-05-07 22:24 49.63586 2.65930 34085 ft 460 kts 12°
2026-05-07 22:25 49.69853 2.68375 34081 ft 463 kts 12°
2026-05-07 22:25 49.76035 2.70786 34081 ft 459 kts 12°
2026-05-07 22:26 49.82236 2.73220 34080 ft 460 kts 12°
2026-05-07 22:26 49.88426 2.75651 34082 ft 460 kts 12°
2026-05-07 22:27 49.94631 2.78091 34091 ft 458 kts 12°
2026-05-07 22:27 50.00808 2.80523 34085 ft 459 kts 12°
2026-05-07 22:28 50.06987 2.82986 34082 ft 458 kts 12°
2026-05-07 22:28 50.13172 2.85449 34087 ft 459 kts 12°
2026-05-07 22:29 50.19351 2.87888 34089 ft 458 kts 12°
2026-05-07 22:29 50.25507 2.90342 34084 ft 457 kts 12°
2026-05-07 22:30 50.31672 2.92814 34084 ft 455 kts 12°
2026-05-07 22:30 50.37835 2.95296 34086 ft 459 kts 12°
2026-05-07 22:31 50.43843 2.98506 34083 ft 459 kts 25°
2026-05-07 22:31 50.49578 3.02947 34083 ft 457 kts 23°
2026-05-07 22:32 50.55341 3.07252 34080 ft 461 kts 24°
2026-05-07 22:32 50.61097 3.11584 34095 ft 459 kts 23°
2026-05-07 22:33 50.66846 3.15960 34087 ft 458 kts 24°
2026-05-07 22:33 50.72599 3.20334 34083 ft 458 kts 24°
2026-05-07 22:34 50.78308 3.24673 34083 ft 460 kts 24°
2026-05-07 22:34 50.84055 3.29053 34093 ft 459 kts 24°
2026-05-07 22:35 50.89813 3.33462 34089 ft 458 kts 24°
2026-05-07 22:35 50.95561 3.37888 34094 ft 461 kts 24°
2026-05-07 22:36 51.01293 3.42298 33946 ft 452 kts 24°
2026-05-07 22:36 51.04126 3.44484 32728 ft 457 kts 24°
2026-05-07 22:36 51.07013 3.46714 31348 ft 466 kts 24°
2026-05-07 22:36 51.09955 3.48996 29965 ft 475 kts 24°
2026-05-07 22:37 51.12937 3.51306 28567 ft 478 kts 24°
2026-05-07 22:37 51.15937 3.53631 27324 ft 478 kts 24°
2026-05-07 22:37 51.18910 3.55943 26320 ft 474 kts 24°
2026-05-07 22:37 51.21849 3.58235 25459 ft 467 kts 24°
2026-05-07 22:38 51.24749 3.60504 24559 ft 462 kts 24°
2026-05-07 22:38 51.27615 3.62747 23747 ft 455 kts 24°
2026-05-07 22:38 51.30396 3.64943 22904 ft 448 kts 25°
2026-05-07 22:38 51.33161 3.67118 22146 ft 438 kts 25°
2026-05-07 22:39 51.35867 3.69251 21440 ft 429 kts 25°
2026-05-07 22:39 51.38517 3.71323 20783 ft 419 kts 25°
2026-05-07 22:39 51.41113 3.73350 20176 ft 410 kts 25°
2026-05-07 22:39 51.43648 3.75343 19597 ft 403 kts 25°
2026-05-07 22:40 51.46151 3.77320 19052 ft 398 kts 25°
2026-05-07 22:40 51.48619 3.79272 18515 ft 394 kts 25°
2026-05-07 22:40 51.51065 3.81210 17947 ft 390 kts 25°
2026-05-07 22:40 51.53483 3.83123 17402 ft 386 kts 25°
2026-05-07 22:41 51.55881 3.85023 16848 ft 383 kts 25°
2026-05-07 22:41 51.58262 3.86903 16288 ft 380 kts 25°
2026-05-07 22:41 51.60623 3.88771 15777 ft 376 kts 26°
2026-05-07 22:41 51.62957 3.90630 15288 ft 372 kts 26°
2026-05-07 22:42 51.65269 3.92482 14788 ft 369 kts 26°
2026-05-07 22:42 51.67562 3.94312 14283 ft 367 kts 25°
2026-05-07 22:42 51.69847 3.96118 13783 ft 364 kts 25°
2026-05-07 22:42 51.72109 3.97915 13264 ft 361 kts 26°
2026-05-07 22:43 51.74354 3.99707 12763 ft 358 kts 26°
2026-05-07 22:43 51.76574 4.01477 12264 ft 354 kts 26°
2026-05-07 22:43 51.78772 4.03236 11792 ft 351 kts 26°
2026-05-07 22:43 51.80951 4.04971 11352 ft 345 kts 26°
2026-05-07 22:44 51.83059 4.06656 11084 ft 331 kts 26°
2026-05-07 22:44 51.85077 4.08274 10878 ft 316 kts 26°
2026-05-07 22:44 51.87000 4.09821 10698 ft 302 kts 26°
2026-05-07 22:44 51.88841 4.11324 10411 ft 293 kts 29°
2026-05-07 22:45 51.90511 4.13245 9801 ft 296 kts 38°
2026-05-07 22:45 51.92109 4.15342 9279 ft 294 kts 39°
2026-05-07 22:45 51.93684 4.17422 8828 ft 290 kts 39°
2026-05-07 22:45 51.95248 4.19475 8323 ft 289 kts 39°
2026-05-07 22:46 51.96806 4.21505 7848 ft 287 kts 39°
2026-05-07 22:46 51.98353 4.23516 7444 ft 282 kts 39°
2026-05-07 22:46 51.99880 4.25498 6987 ft 281 kts 39°
2026-05-07 22:46 52.01401 4.27467 6529 ft 279 kts 39°
2026-05-07 22:47 52.02917 4.29426 6049 ft 277 kts 39°
2026-05-07 22:47 52.03912 4.30713 5733 ft 277 kts 39°
2026-05-07 22:47 52.05409 4.32652 5282 ft 274 kts 39°
2026-05-07 22:47 52.06898 4.34582 4842 ft 272 kts 39°
2026-05-07 22:48 52.08372 4.36498 4377 ft 271 kts 39°
2026-05-07 22:48 52.09840 4.38404 3923 ft 269 kts 40°
2026-05-07 22:48 52.11292 4.40296 3492 ft 266 kts 40°
2026-05-07 22:48 52.12731 4.42170 3111 ft 263 kts 40°
2026-05-07 22:49 52.14132 4.43988 2904 ft 251 kts 40°
2026-05-07 22:49 52.15451 4.45699 2859 ft 233 kts 40°
2026-05-07 22:49 52.16732 4.47364 2869 ft 238 kts 40°
2026-05-07 22:49 52.18026 4.49053 2892 ft 238 kts 40°
2026-05-07 22:50 52.19318 4.50742 2895 ft 238 kts 40°
2026-05-07 22:50 52.20546 4.52523 2894 ft 230 kts 49°
2026-05-07 22:50 52.21533 4.54511 2756 ft 221 kts 57°
2026-05-07 22:50 52.22308 4.56603 2478 ft 212 kts 59°
2026-05-07 22:51 52.23077 4.58600 2192 ft 204 kts 59°
2026-05-07 22:51 52.23822 4.60528 1914 ft 195 kts 60°
2026-05-07 22:51 52.24518 4.62332 1712 ft 182 kts 60°
2026-05-07 22:51 52.25162 4.64002 1474 ft 165 kts 60°
2026-05-07 22:52 52.25752 4.65533 1235 ft 154 kts 60°
2026-05-07 22:52 52.26297 4.66948 1005 ft 142 kts 60°
2026-05-07 22:52 52.26819 4.68307 794 ft 141 kts 59°
2026-05-07 22:52 52.27340 4.69658 611 ft 140 kts 59°
2026-05-07 22:53 52.27868 4.71007 415 ft 142 kts 59°
2026-05-07 22:53 52.28379 4.72346 243 ft 140 kts 59°
2026-05-07 22:53 52.28897 4.73685 51 ft 140 kts 60°
2026-05-07 22:53 52.29385 4.74961 4 ft 117 kts 58°
2026-05-07 22:54 52.29731 4.75860 3 ft 77 kts 58°
2026-05-07 22:54 52.29958 4.76426 2 ft 33 kts 51°
2026-05-07 22:54 52.30092 4.76597 4 ft 24 kts 26°
2026-05-07 22:54 52.30243 4.76723 4 ft 25 kts 27°
2026-05-07 22:55 52.30338 4.76890 4 ft 20 kts 60°
2026-05-07 22:55 52.30417 4.77088 4 ft 22 kts 57°
2026-05-07 22:55 52.30497 4.77305 4 ft 23 kts 58°
2026-05-07 22:55 52.30584 4.77528 4 ft 22 kts 52°
2026-05-07 22:56 52.30722 4.77592 4 ft 22 kts
2026-05-07 22:56 52.30878 4.77609 4 ft 21 kts
2026-05-07 22:56 52.31001 4.77602 4 ft 17 kts 323°
2026-05-07 22:56 52.31061 4.77452 4 ft 16 kts 296°
2026-05-07 22:57 52.31071 4.77341 4 ft 1 kts 251°
2026-05-07 22:57 52.31065 4.77330 4 ft 1 kts 220°
2026-05-07 22:57 52.31064 4.77328 4 ft 0 kts 216°
2026-05-07 22:57 52.31052 4.77320 4 ft 4 kts 197°
2026-05-07 22:58 52.31015 4.77316 4 ft 3 kts 184°
2026-05-07 22:58 52.31000 4.77315 4 ft 1 kts 184°
2026-05-07 22:58 52.30999 4.77315 4 ft 0 kts 184°